Location: Albuquerque Trailhead
(34.7934°N, 106.3736°W)
Time: 16:23:46
(UTC+00:00)

POLYITAN 1 - Pass Details

Date: 21 April 2024
Orbit: 551 x 569 km, 98.1° (Epoch: 25 May)

Event Time Altitude Azimuth Distance (km) Brightness Sun altitude
Rises 09:55:19 0° 20° (NNE) 2,788 ? -28.0°
Reaches altitude 10° 09:57:33 10° 27° (NNE) 1,886 ? -27.7°
Enters shadow 10:01:17 42° 92° (E) 821 ? -27.1°
